Simultaneous Nadir Overpasses (SNOs) Predictions

Prediction of SNOs between AQUA and GOES-15 Satellite Orbit:

Table of predicted SNOs for the next 14.0 days since TLE Epoch: 12/8/2012
Index Date Time (AQUA) AQUA Lat,Lon GOES-15 Lat,Lon Distance(km) Time Diff (sec)
1 12/09/2012 10:38:01 0.01,-135.69 -0.07,-135.37 36.12 80
2 12/11/2012 10:25:53 -0.63,-132.75 -0.06,-135.40 301.61 80
3 12/11/2012 22:47:18 -0.48,-137.94 0.08,-135.39 290.56 80
4 12/13/2012 22:35:10 0.18,-135.00 0.07,-135.40 46.37 80
5 12/15/2012 22:23:01 0.79,-132.05 0.07,-135.42 382.79 80
6 12/16/2012 10:44:17 0.31,-137.21 -0.08,-135.44 201.85 80
7 12/18/2012 10:32:08 -0.31,-134.26 -0.08,-135.45 134.39 80
8 12/18/2012 22:53:33 -0.79,-139.45 0.10,-135.42 458.90 80
9 12/20/2012 10:19:59 -0.94,-131.31 -0.08,-135.45 470.39 80
10 12/20/2012 22:41:24 -0.15,-136.51 0.09,-135.43 122.79 80




NCC Satellite Simultaneous Nadir Overpasses (SNOs) Prediction Service
